Home   Weather   Saskatoon   Past weeks

Flag for Canada Past Weather in Saskatoon, Saskatchewan, Canada — Yesterday and Last 2 Weeks

Now
-6 °F

Snow flurries. Scattered clouds.


Feels Like: -6 °F
Forecast: N/A
Wind: 2 mph from North

Location: Saskatoon Weather Station

Current Time: Dec 9, 2016 at 3:21:58 pm

Latest Report: Dec 9, 2016 at 3:00 pm


Visibility: 6 mi

Pressure: 30.75 "Hg

Humidity: 70%

Dew Point: -13 °F

Location of SaskatoonLocation

Past Weather in Saskatoon — Graph

°F

Saskatoon Temperature Yesterday

Maximum temperature yesterday: -2 °F (at 12:00 am)
Minimum temperature yesterday: -13 °F (at 9:00 pm)
Average temperature yesterday: -7 °F

High & Low Weather Summary for the Past Weeks

 TemperatureHumidityPressure
High37 °F (Nov 25, 7:00 pm)100% (Nov 24, 2:00 pm)30.88 "Hg (Nov 24, 2:00 pm)
Low-17 °F (Dec 9, 9:00 am)64% (Dec 4, 3:00 pm)29.40 "Hg (Nov 27, 10:00 pm)
Average19 °F83%30.07 "Hg
* Reported Nov 24 2:00 pm — Dec 9 2:00 pm, Saskatoon, Weather by CustomWeather, © 2016

Note: Actual official high and low records may vary slightly from our data, if they occured in-between our weather recording intervals... More about our weather records

Advertising

Saskatoon Weather History for the Previous 24 Hours

Scroll right to see more
 ConditionsComfort  
Time TempWeatherWind HumidityBarometerVisibility
2:00 pm
Fri, Dec 9
-6 °FSnow flurries. Passing clouds.2 mph64%30.76 "Hg12 mi
1:00 pm-8 °FSnow flurries. Passing clouds.3 mph70%30.79 "Hg6 mi
12:00 pm-9 °FSnow flurries. Scattered clouds.3 mph77%30.81 "Hg4 mi
11:00 am-11 °FSnow flurries. Passing clouds.3 mph76%30.82 "Hg5 mi
10:00 am-13 °FPassing clouds.5 mph76%30.82 "Hg15 mi
9:00 am-17 °FPassing clouds.5 mph76%30.82 "Hg15 mi
8:00 am-15 °FPartly cloudy.5 mph76%30.82 "Hg15 mi
7:48 am-15 °FPartly cloudy.3 mph76%30.82 "Hg15 mi
7:00 am-13 °FSnow flurries. Passing clouds.5 mph76%30.82 "Hg15 mi
6:00 am-13 °FSnow flurries. Passing clouds.6 mph76%30.82 "Hg15 mi
5:00 am-15 °FSnow flurries. Passing clouds.6 mph76%30.83 "Hg15 mi
4:00 am-15 °FSnow flurries. Passing clouds.5 mph76%30.82 "Hg15 mi
3:00 am-15 °FSnow flurries. Passing clouds.6 mph76%30.82 "Hg15 mi
2:00 am-13 °FSnow flurries. Passing clouds.6 mph76%30.82 "Hg15 mi
1:00 am-13 °FSnow flurries. Passing clouds.5 mph76%30.83 "Hg15 mi
12:00 am-11 °FSnow flurries. Passing clouds.7 mph70%30.83 "Hg15 mi
11:00 pm
Thu, Dec 8
-13 °FSnow flurries. Passing clouds.6 mph76%30.82 "Hg15 mi
10:00 pm-11 °FSnow flurries. Passing clouds.7 mph76%30.83 "Hg15 mi
9:00 pm-13 °FPassing clouds.5 mph76%30.83 "Hg15 mi
8:00 pm-11 °FSnow flurries. Passing clouds.6 mph76%30.83 "Hg15 mi
7:00 pm-9 °FSnow flurries. Passing clouds.7 mph70%30.84 "Hg15 mi
6:00 pm-8 °FSnow flurries. Passing clouds.8 mph70%30.85 "Hg15 mi
5:00 pm-6 °FSnow flurries. Passing clouds.9 mph70%30.84 "Hg15 mi
4:00 pm-4 °FSnow flurries. Scattered clouds.12 mph71%30.84 "Hg15 mi
3:00 pm-2 °FSnow flurries. Passing clouds.7 mph65%30.84 "Hg12 mi
Weather by CustomWeather, © 2016

See weather overviewHow to use our weather pages